• In United Kingdom
  • List of Countries
  • For 7 days
  • Water Temperature
  • Satellite Maps
  • Weather Map
  • Weather Widgets
  • user-avatar
    Login

    Hourly Weather Uige

    Today, 22 November, Wednesday

    Time Temperature Precipitation Wind Pressure Humidity
    00:00 +22°C° 0.2 mm 1 mps 690 mmHg 97%
    01:00 +21°C° 0.2 mm 1 mps 690 mmHg 97%
    02:00 +19°C° 0.9 mm 0 mps 690 mmHg 98%
    03:00 +19°C° 0.9 mm 0 mps 690 mmHg 98%
    04:00 +19°C° 0.9 mm 0 mps 690 mmHg 98%
    05:00 +20°C° 0.3 mm 0 mps 690 mmHg 97%
    06:00 +20°C° 0.3 mm 0 mps 691 mmHg 97%
    07:00 +21°C° 0.3 mm 0 mps 691 mmHg 96%
    08:00 +22°C° 0.6 mm 0 mps 691 mmHg 92%
    09:00 +25°C° 0.6 mm 1 mps 691 mmHg 88%
    10:00 +27°C° 0.6 mm 1 mps 691 mmHg 83%
    11:00 +28°C° 1 mm 1 mps 691 mmHg 78%
    12:00 +29°C° 1 mm 1 mps 690 mmHg 73%
    13:00 +30°C° 1 mm 1 mps 690 mmHg 68%
    14:00 +29°C° 1.1 mm 1 mps 689 mmHg 74%
    15:00 +28°C° 1.1 mm 1 mps 689 mmHg 80%
    16:00 +28°C° 1.1 mm 1 mps 688 mmHg 86%
    17:00 +26°C° 1.4 mm 1 mps 689 mmHg 89%
    18:00 +24°C° 1.4 mm 1 mps 689 mmHg 92%
    19:00 +23°C° 1.4 mm 1 mps 689 mmHg 95%
    20:00 +23°C° 0.4 mm 1 mps 690 mmHg 95%
    21:00 +22°C° 0.4 mm 1 mps 690 mmHg 96%
    22:00 +22°C° 0.4 mm 1 mps 691 mmHg 96%
    23:00 +22°C° 1.1 mm 1 mps 691 mmHg 97%

    Tomorrow, 23 November, Thursday

    Time Temperature Precipitation Wind Pressure Humidity
    00:00 +22°C° 1.1 mm 1 mps 690 mmHg 98%
    01:00 +22°C° 1.1 mm 1 mps 690 mmHg 99%
    02:00 +21°C° 0.4 mm 1 mps 690 mmHg 99%
    03:00 +21°C° 0.4 mm 1 mps 690 mmHg 99%
    04:00 +21°C° 0.4 mm 1 mps 689 mmHg 99%
    05:00 +21°C° 0.4 mm 1 mps 690 mmHg 98%
    06:00 +22°C° 0.4 mm 1 mps 690 mmHg 98%
    07:00 +22°C° 0.4 mm 1 mps 691 mmHg 98%
    08:00 +22°C° 0.8 mm 1 mps 691 mmHg 97%
    09:00 +21°C° 0.8 mm 0 mps 691 mmHg 96%
    10:00 +21°C° 0.8 mm 0 mps 692 mmHg 95%
    11:00 +21°C° 0.8 mm 0 mps 691 mmHg 95%
    12:00 +22°C° 0.8 mm 0 mps 690 mmHg 95%
    13:00 +24°C° 0.8 mm 1 mps 690 mmHg 94%
    14:00 +22°C° 0.4 mm 0 mps 689 mmHg 94%
    15:00 +22°C° 0.4 mm 0 mps 689 mmHg 93%
    16:00 +22°C° 0.4 mm 0 mps 689 mmHg 93%
    17:00 +21°C° 0.1 mm 0 mps 689 mmHg 94%
    18:00 +21°C° 0.1 mm 0 mps 689 mmHg 96%
    19:00 +20°C° 0.1 mm 0 mps 690 mmHg 97%
    20:00 +20°C° 0.1 mm 0 mps 690 mmHg 97%
    21:00 +20°C° 0.1 mm 0 mps 691 mmHg 97%
    22:00 +19°C° 0.1 mm 0 mps 691 mmHg 96%
    23:00 +19°C° 0.1 mm 0 mps 691 mmHg 96%

    Day after tomorrow, 24 November, Friday

    Time Temperature Precipitation Wind Pressure Humidity
    00:00 +19°C° 0.1 mm 0 mps 691 mmHg 96%
    01:00 +19°C° 0.1 mm 0 mps 690 mmHg 96%
    02:00 +18°C° 0 mm 0 mps 690 mmHg 96%
    03:00 +18°C° 0 mm 0 mps 690 mmHg 96%
    04:00 +18°C° 0 mm 0 mps 690 mmHg 96%
    05:00 +19°C° 0 mm 0 mps 690 mmHg 95%
    06:00 +19°C° 0 mm 0 mps 691 mmHg 94%
    07:00 +20°C° 0 mm 0 mps 691 mmHg 93%
    08:00 +22°C° 0.1 mm 0 mps 692 mmHg 86%
    09:00 +24°C° 0.1 mm 0 mps 692 mmHg 78%
    10:00 +26°C° 0.1 mm 0 mps 693 mmHg 71%
    11:00 +27°C° 0.7 mm 1 mps 692 mmHg 75%
    12:00 +27°C° 0.7 mm 1 mps 691 mmHg 79%
    13:00 +27°C° 0.7 mm 1 mps 690 mmHg 83%
    14:00 +26°C° 1 mm 2 mps 690 mmHg 86%
    15:00 +26°C° 1 mm 2 mps 689 mmHg 89%
    16:00 +25°C° 1 mm 2 mps 689 mmHg 92%
    17:00 +24°C° 1 mm 2 mps 689 mmHg 94%
    18:00 +23°C° 1 mm 1 mps 690 mmHg 95%
    19:00 +22°C° 1 mm 1 mps 690 mmHg 97%
    20:00 +22°C° 0.6 mm 1 mps 691 mmHg 97%
    21:00 +22°C° 0.6 mm 1 mps 691 mmHg 98%
    22:00 +22°C° 0.6 mm 1 mps 692 mmHg 98%
    23:00 +21°C° 0.5 mm 1 mps 691 mmHg 98%

    25 November, Saturday

    Time Temperature Precipitation Wind Pressure Humidity
    00:00 +21°C° 0.5 mm 1 mps 691 mmHg 98%
    01:00 +21°C° 0.5 mm 1 mps 691 mmHg 99%
    02:00 +21°C° 0.5 mm 1 mps 691 mmHg 99%
    03:00 +21°C° 0.5 mm 1 mps 690 mmHg 98%
    04:00 +21°C° 0.5 mm 1 mps 690 mmHg 98%
    05:00 +19°C° 0.3 mm 0 mps 691 mmHg 98%
    06:00 +19°C° 0.3 mm 0 mps 691 mmHg 98%
    07:00 +19°C° 0.3 mm 0 mps 692 mmHg 97%
    08:00 +20°C° 0.3 mm 0 mps 692 mmHg 94%
    09:00 +23°C° 0.3 mm 1 mps 692 mmHg 91%
    10:00 +24°C° 0.3 mm 1 mps 692 mmHg 88%
    11:00 +24°C° 0.3 mm 1 mps 692 mmHg 85%
    12:00 +25°C° 0.3 mm 1 mps 691 mmHg 82%
    13:00 +26°C° 0.3 mm 2 mps 690 mmHg 79%
    14:00 +25°C° 0.7 mm 2 mps 690 mmHg 84%
    15:00 +25°C° 0.7 mm 2 mps 690 mmHg 88%
    16:00 +25°C° 0.7 mm 2 mps 689 mmHg 93%
    17:00 +24°C° 0.8 mm 2 mps 690 mmHg 94%
    18:00 +23°C° 0.8 mm 1 mps 691 mmHg 96%
    19:00 +22°C° 0.8 mm 1 mps 691 mmHg 97%
    20:00 +22°C° 1 mm 1 mps 691 mmHg 98%
    21:00 +22°C° 1 mm 1 mps 692 mmHg 98%
    22:00 +21°C° 1 mm 1 mps 692 mmHg 98%
    23:00 +21°C° 1.9 mm 1 mps 692 mmHg 98%

    26 November, Sunday

    Time Temperature Precipitation Wind Pressure Humidity
    00:00 +21°C° 1.9 mm 1 mps 692 mmHg 98%
    01:00 +21°C° 1.9 mm 1 mps 691 mmHg 98%
    02:00 +21°C° 1.5 mm 1 mps 691 mmHg 98%
    03:00 +21°C° 1.5 mm 1 mps 691 mmHg 98%
    04:00 +18°C° 1.5 mm 0 mps 691 mmHg 98%
    05:00 +19°C° 0.6 mm 0 mps 691 mmHg 98%
    06:00 +19°C° 0.6 mm 0 mps 692 mmHg 98%
    07:00 +19°C° 0.6 mm 0 mps 692 mmHg 97%
    08:00 +21°C° 0.3 mm 1 mps 693 mmHg 96%
    09:00 +22°C° 0.3 mm 1 mps 693 mmHg 94%
    10:00 +22°C° 0.3 mm 1 mps 693 mmHg 93%
    11:00 +24°C° 0.2 mm 1 mps 693 mmHg 85%
    12:00 +25°C° 0.2 mm 2 mps 692 mmHg 77%
    13:00 +26°C° 0.2 mm 2 mps 692 mmHg 70%
    14:00 +26°C° 0.4 mm 2 mps 692 mmHg 75%
    15:00 +25°C° 0.4 mm 2 mps 691 mmHg 79%
    16:00 +25°C° 0.4 mm 2 mps 691 mmHg 84%
    17:00 +24°C° 0.3 mm 1 mps 691 mmHg 88%
    18:00 +23°C° 0.3 mm 1 mps 692 mmHg 92%
    19:00 +19°C° 0.3 mm 0 mps 692 mmHg 96%
    20:00 +19°C° 0 mm 0 mps 692 mmHg 96%
    21:00 +19°C° 0 mm 0 mps 693 mmHg 96%
    22:00 +19°C° 0 mm 0 mps 693 mmHg 97%
    23:00 +18°C° 0 mm 0 mps 692 mmHg 97%

    27 November, Monday

    Time Temperature Precipitation Wind Pressure Humidity
    00:00 +18°C° 0 mm 0 mps 692 mmHg 97%
    01:00 +18°C° 0 mm 0 mps 692 mmHg 97%
    02:00 +18°C° 0.1 mm 0 mps 691 mmHg 97%
    03:00 +18°C° 0.1 mm 0 mps 691 mmHg 97%
    04:00 +18°C° 0.1 mm 0 mps 691 mmHg 97%
    05:00 +18°C° 0 mm 0 mps 692 mmHg 96%
    06:00 +19°C° 0 mm 0 mps 692 mmHg 95%
    07:00 +19°C° 0 mm 0 mps 693 mmHg 94%
    08:00 +22°C° 0.1 mm 0 mps 693 mmHg 84%
    09:00 +26°C° 0.1 mm 1 mps 693 mmHg 73%
    10:00 +28°C° 0.1 mm 1 mps 693 mmHg 63%
    11:00 +28°C° 0.5 mm 1 mps 693 mmHg 66%
    12:00 +28°C° 0.5 mm 1 mps 692 mmHg 68%
    13:00 +29°C° 0.5 mm 2 mps 691 mmHg 70%
    14:00 +28°C° 1.5 mm 1 mps 691 mmHg 75%
    15:00 +27°C° 1.5 mm 1 mps 690 mmHg 80%
    16:00 +27°C° 1.5 mm 1 mps 690 mmHg 84%
    17:00 +25°C° 0.7 mm 1 mps 690 mmHg 87%
    18:00 +22°C° 0.7 mm 0 mps 690 mmHg 90%
    19:00 +20°C° 0.7 mm 0 mps 691 mmHg 93%
    20:00 +20°C° 0 mm 0 mps 691 mmHg 94%
    21:00 +19°C° 0 mm 0 mps 691 mmHg 94%
    22:00 +19°C° 0 mm 0 mps 692 mmHg 95%
    23:00 +19°C° 0 mm 0 mps 691 mmHg 95%
    Show more